Regional Weather Roundup
Issued by NWS Raleigh/Durham, NC

Home | Current Version | Previous Version | Text Only | Print | Product List | Glossary On
Versions: 1 2 3 4 5 6 7 8 9 10 11 12 13 14 15 16 17 18 19 20 21 22 23 24 25 26 27 28 29 30 31 32 33 34 35 36 37 38 39 40 41 42 43 44 45 46 47 48 49 50
000
ASUS42 KRAH 031610
RWRRAH
NORTH CAROLINA WEATHER ROUNDUP
NATIONAL WEATHER SERVICE RALEIGH NC
1200 PM EDT WED JUN 03 2020

NOTE: "FAIR" INDICATES FEW OR NO CLOUDS BELOW 12,000 FEET WITH NO
SIGNIFICANT WEATHER AND/OR OBSTRUCTIONS TO VISIBILITY.

NCZ001-053-055-056-065-067-031700-
WESTERN NORTH CAROLINA

CITY           SKY/WX    TMP DP  RH WIND       PRES   REMARKS
ASHEVILLE      SUNNY     82  62  50 N12G21    30.07F
JEFFERSON      SUNNY     74  56  53 W20G29    30.07F
MORGANTON      SUNNY     86  53  32 S5        30.01F
HICKORY        SUNNY     85  64  49 W7        29.98F
WILKESBORO     NOT AVBL
RUTHERFORDTON  SUNNY     82  63  51 W3        30.01F
MOUNT AIRY     SUNNY     85  62  45 W8        29.97F
BOONE            N/A     76  56  49 W15G23    30.10S
$$

NCZ021-022-025-041-071-084-088-031700-
CENTRAL NORTH CAROLINA

CITY           SKY/WX    TMP DP  RH WIND       PRES   REMARKS
CHARLOTTE      MOSUNNY   84  67  56 S8        29.99F
GREENSBORO     MOSUNNY   83  65  54 W13       29.95F
WINSTON-SALEM  SUNNY     84  65  52 W9        29.96F
RALEIGH-DURHAM MOSUNNY   85  69  58 SW10      29.94F
FORT BRAGG     MOSUNNY   84  66  53 S7        29.95F
FAYETTEVILLE   SUNNY     84  65  52 W13       29.97F
BURLINGTON     SUNNY     87  66  49 S9G17     29.94F
ROXBORO        SUNNY     82  64  54 W9G17     29.94F
HENDERSON      SUNNY     82  64  53 W10G20    29.91F
LOUISBURG      SUNNY     82  66  57 SW8G17    29.95F
LAURINBURG     SUNNY     84  68  58 SW9       29.99F
$$

NCZ011-015-027-028-043-044-047-080-103-031700-
NORTHEASTERN NORTH CAROLINA

CITY           SKY/WX    TMP DP  RH WIND       PRES   REMARKS
ROCKY MT-WILSO SUNNY     85  68  56 SW14      29.93S
GREENVILLE     SUNNY     84  68  58 SW12G18   29.95S
WASHINGTON     SUNNY     84  67  55 SW13      29.93F
ELIZABETH CITY MOSUNNY   85  70  60 SW14      29.87F
MANTEO         SUNNY     81  67  62 W13       29.90S
CAPE HATTERAS  SUNNY     80  69  69 SW18G30   29.94F
$$

NCZ078-087-090-091-093-098-101-031700-
SOUTHEASTERN NORTH CAROLINA

CITY           SKY/WX    TMP DP  RH WIND       PRES   REMARKS
GOLDSBORO      SUNNY     84  68  58 SW12      29.93F
KINSTON        SUNNY     84  68  58 SW9G17    29.95F
KENANSVILLE    SUNNY     82  66  57 SW10      29.96F
NEW BERN       NOT AVBL
CHERRY POINT   MOSUNNY   84  66  54 SW15      29.96F
BEAUFORT       MOSUNNY   80  68  66 SW22      29.97F
JACKSONVILLE   MOSUNNY   84  65  52 W12       29.96F
WILMINGTON     SUNNY     84  64  50 W14       29.99F
$$




USA.gov is the U.S. government's official web portal to all federal, state and local government web resources and services.